User: anonymous   Login
Location: PFO Observatory
(45.2937°N, 66.0991°W)
Time: 14:25:56
(UTC-03:00)
Language:

Cosmos 1151 Rocket - Orbit

View from above orbital plane
View from above orbital plane
View from above satellite
View from above satellite

Ground track
Ground track

The orbit data is extracted from the following two-line orbital elements,

1 11672U 80005B   16121.64517869  .00000190  00000-0  18150-4 0  9996
2 11672  82.5133 108.7306 0015310 244.3833 115.5803 14.87777440962057
Epoch (UTC): 30 April 2016 15:29:03
Eccentricity: 0.0015310
inclination: 82.5133°
perigee height: 594 km
apogee height: 615 km
right ascension of ascending node: 108.7306°
argument of perigee: 244.3833°
revolutions per day: 14.87777440
mean anomaly at epoch: 115.5803°
orbit number at epoch: 96205

The dashed part of the orbit path shows where the satellite is in the earth's shadow,  

DLR